Location: Fort Worth, Tx
(32.7431°N, 97.3695°W)
Time: 09:53:36
(UTC-04:00)

A-11 Canister half - Pass Details

Date: 22 August 2024
Orbit: 1524 x 1684 km, 47.3° (Epoch: 13 September)

Event Time Altitude Azimuth Distance (km) Brightness Sun altitude
Rises 03:47:05 0° 305° (NW) 4,935 11.8 -42.2°
Reaches altitude 10° 03:50:25 10° 310° (NW) 3,950 11.2 -41.9°
Maximum altitude 04:00:19 53° 26° (NNE) 1,990 9.6 -41.0°
Drops below altitude 10° 04:10:03 10° 102° (ESE) 3,890 11.3 -39.9°
Sets 04:13:17 0° 107° (ESE) 4,857 11.8 -39.6°
